sat.trackr.live / text

‹ back to catalog

STARLINK-37909

NORAD 69566 · 2026-135W

PAYLOAD ACTIVE UNKNOWN

§ Identity

Operator
Country
US
Launch date
2026-06-15
Launch site
AFWTR
Launch vehicle
Mass (kg)
RCS (m²)

Purposes: comms

External: N2YO · Heavens-Above · Gunter

§ Orbital elements

Epoch: 2026-09-20T00:50:46.718016Z

Period
93.91 min
Inclination
97.2822°
Eccentricity
0.0001426
Mean motion
15.33427484 rev/d
Perigee alt
464.6 km
Apogee alt
466.6 km
Semi-major
6,843.7 km
B*
5.0063e-4
RAAN
290.8005°
Arg perigee
106.5076°
Mean anomaly
253.6323°
Rev number
1,493

§ Raw data

STARLINK-379091 69566U 26135W   26263.03526294  .00016113  00000+0  50063-3 0  99972 69566  97.2822 290.8005 0001426 106.5076 253.6323 15.33427484 14938

JSON: /api/v1/satellites/69566 · /tle

For live sub-satellite position, see the globe view (requires WebGL).

§ Visibility from observer

Set your observer location to see the next 7 days of passes ≥ 10°. The values pass through the URL so the page stays shareable.

No JS? Fill the form by hand. The geolocation button needs JavaScript.